Location: Sungai Bunut
(2.6333°N, 113.7333°E)
Time: 19:52:08
(UTC+00:00)

Cosmos 2184 Rocket - Pass Details

Date: 16 October 2021
Orbit: 960 x 1001 km, 82.9° (Epoch: 08 December)

Event Time Altitude Azimuth Distance (km) Brightness Sun altitude
Exits shadow 20:06:06 24° 11° (N) 1,884 5.5 -31.1°
Maximum altitude 20:09:56 66° 87° (E) 1,056 4.2 -30.2°
Drops below altitude 10° 20:16:09 10° 168° (SSE) 2,737 6.6 -28.6°
Sets 20:18:42 0° 171° (S) 3,693 7.2 -28.0°
